Wind_Speed
25 20 17 18 15 15 13 12 11 10 9 8 8 6 7 7 6 8 9 9 8 9 8 8 8 9 9 9 9 8 7 8 6 6 5 6 6 5 4 4 4 3 4
26 19 15 17 13 14 13 11 9 8 7 7 6 5 5 6 7 8 8 8 8 8 9 8 7 8 9 9 8 7 5 5 6 5 5 5 5 5 6 5 4 4 3
21 15 15 14 14 13 12 9 8 6 7 6 7 6 6 8 7 6 5 5 6 4 6 7 6 7 6 8 6 5 6 7 4 6 2 1 6 6 5 5 5 5 4
17 14 14 12 15 12 9 9 8 7 6 7 8 7 7 7 6 6 6 6 5 5 1 3 5 5 5 4 3 4 6 6 6 8 14 9 7 5 4 3 5 6 6
14 13 13 14 15 10 8 10 9 8 9 10 10 10 11 10 10 11 10 8 7 4 1 0 1 1 3 2 3 4 8 8 12 14 19 15 7 5 2 2 3 2 4
9 13 13 13 12 9 9 10 11 12 17 20 19 16 15 15 17 16 15 14 12 9 5 3 1 3 3 3 5 7 9 10 11 17 19 9 7 8 11 4 4 5 4
7 9 9 12 11 8 10 12 16 19 21 23 24 22 20 21 22 21 20 19 17 15 12 10 6 3 3 5 4 8 10 11 14 17 11 11 13 14 12 4 4 8 9
7 7 9 10 10 9 12 13 16 18 19 21 22 21 22 22 22 21 21 24 24 21 18 15 12 7 4 3 3 6 10 10 8 9 10 13 14 14 10 5 3 9 11
6 8 8 9 9 11 12 14 15 17 18 18 20 20 22 22 20 22 23 24 23 22 20 19 18 14 10 6 6 6 8 9 9 10 9 10 11 12 8 9 9 10 10
6 7 7 8 11 12 13 15 14 15 18 19 18 19 20 20 22 23 26 21 22 22 22 21 19 16 11 9 9 10 9 8 10 11 9 10 12 13 12 11 12 15 16
5 6 7 9 12 12 14 14 14 17 15 17 16 17 12 19 18 22 18 24 19 20 19 19 16 13 9 5 5 7 8 9 10 9 9 10 11 13 13 13 14 15 16
4 6 9 10 13 13 15 14 15 16 15 14 14 13 15 16 19 23 18 16 16 16 15 14 13 14 14 13 13 14 14 11 11 12 10 11 12 13 15 15 16 17 18
4 8 10 12 12 15 16 14 15 16 14 16 14 12 19 20 17 18 15 17 15 12 14 17 18 17 16 16 19 19 19 15 11 14 16 15 16 17 16 17 17 17 17
6 10 12 11 13 18 15 15 16 15 19 15 14 20 24 23 21 15 12 14 14 12 17 18 19 20 22 23 25 25 26 24 20 16 17 18 19 18 17 16 17 19 21
7 11 12 13 16 17 17 17 16 15 21 21 24 17 22 21 19 18 14 14 11 15 17 18 21 19 21 23 20 24 18 16 23 15 15 17 20 21 22 21 19 21 25
10 12 13 14 14 17 19 19 18 16 19 23 20 19 18 18 17 16 14 12 14 15 17 18 20 22 23 24 24 26 21 15 16 15 17 20 22 26 30 32 28 28 24
10 12 14 14 14 16 18 21 20 19 19 20 17 16 15 14 14 14 12 13 17 19 19 20 23 25 24 27 26 29 25 20 16 15 16 18 20 19 19 23 24 27 30
11 12 14 14 14 15 16 19 19 18 15 13 13 13 13 12 12 13 15 16 18 18 17 14 16 17 20 24 23 23 21 19 17 15 16 14 19 22 25 28 27 26 26
11 12 14 14 15 14 14 16 17 15 15 11 11 11 11 10 11 13 15 15 16 15 14 15 15 20 21 21 22 18 19 21 21 23 23 23 22 19 20 21 25 27 27
13 11 12 14 14 14 14 14 13 13 12 9 9 7 9 12 12 13 14 15 15 15 16 17 19 19 23 28 26 17 16 17 19 22 22 21 22 24 26 26 28 29 31
14 13 12 12 13 14 15 12 9 8 8 6 5 8 8 12 12 12 13 13 14 16 16 17 22 23 28 29 20 19 13 20 23 26 26 24 23 26 30 31 34 34 36
14 13 12 11 11 12 11 10 8 7 5 4 4 7 8 11 11 11 12 11 13 14 17 20 26 24 22 23 19 16 12 19 21 23 28 29 29 27 30 31 34 32 37
12 12 11 10 10 9 9 7 6 4 2 3 4 6 9 11 11 9 11 10 12 14 19 21 23 20 21 22 21 17 13 16 18 20 26 27 29 28 30 33 37 38 43
9 9 7 7 7 7 6 4 4 3 1 1 4 7 8 11 9 8 8 9 11 15 19 21 23 25 21 21 20 21 21 21 19 19 24 29 32 34 33 36 39 42 45
8 10 9 7 7 5 4 3 3 2 0 2 4 6 8 9 8 6 7 9 13 16 18 21 22 28 30 29 21 21 19 23 26 27 26 30 36 35 36 39 42 44 45
9 9 9 8 7 6 4 3 2 2 0 2 3 6 7 6 7 5 7 10 12 14 16 19 20 23 32 34 21 20 21 21 26 28 30 33 34 36 38 39 44 45 42
Wind_Direction
89 108 120 124 122 123 121 128 133 122 112 123 121 120 106 85 69 84 86 78 68 68 69 80 79 71 63 68 70 70 71 87 98 86 71 56 51 54 54 77 69 63 51
95 91 117 113 125 121 120 125 120 113 103 116 114 103 86 90 90 95 80 68 62 65 65 68 75 69 59 69 61 66 70 64 63 81 84 81 71 49 20 38 39 27 19
59 110 122 120 113 110 117 111 107 103 97 96 89 83 76 75 73 65 63 50 34 40 69 72 67 63 56 57 54 48 54 47 16 29 346 108 112 85 31 11 29 25 27
84 106 116 121 119 108 106 94 89 85 77 67 70 73 68 61 53 57 51 43 48 64 43 68 71 61 56 52 35 29 33 18 359 323 318 208 104 71 33 15 25 23 357
102 118 127 125 106 98 86 84 78 70 72 72 71 68 66 66 68 59 50 41 35 38 32 18 170 63 41 357 6 359 20 4 350 343 326 338 353 343 297 351 328 351 340
114 120 113 110 99 85 74 80 72 73 80 75 69 72 75 75 67 57 51 44 42 39 30 10 323 266 282 314 345 355 3 360 3 342 340 278 25 343 309 278 281 295 316
112 109 108 103 97 83 83 79 81 83 79 69 70 72 73 71 71 69 65 58 57 54 49 46 39 11 295 295 316 343 360 351 350 6 39 26 16 16 9 287 284 318 324
122 100 105 100 92 84 84 83 82 76 72 76 73 73 74 72 76 74 65 60 59 59 57 59 60 58 37 2 345 341 339 348 358 6 9 14 15 16 23 48 314 308 321
123 101 104 94 94 90 82 85 78 75 78 75 74 75 81 82 77 79 73 66 66 67 61 55 56 58 56 31 345 348 354 6 353 350 3 12 16 7 347 358 341 326 324
128 115 105 97 94 95 87 82 77 72 65 62 65 67 69 74 71 67 69 68 68 65 63 60 59 54 50 35 3 353 1 4 352 345 356 355 4 355 344 351 341 335 336
139 115 112 102 103 98 96 84 80 72 70 68 68 72 73 64 66 67 69 73 75 67 65 64 62 65 54 37 9 340 338 356 337 321 338 348 340 341 343 350 341 341 332
128 124 116 110 110 102 100 89 82 80 78 83 68 77 79 71 70 69 62 74 75 71 69 59 46 23 16 354 343 333 337 339 308 307 321 321 340 336 354 348 346 338 330
152 122 115 114 110 107 104 92 87 86 83 67 62 58 65 68 77 72 70 66 58 43 47 36 27 11 4 353 346 335 328 329 327 330 333 345 344 347 346 342 333 330 335
133 122 118 117 113 115 107 102 92 89 78 71 80 69 78 77 79 70 63 75 45 49 41 33 26 15 11 11 358 350 336 318 323 331 336 337 335 331 327 321 321 316 312
129 125 126 120 120 118 111 106 92 77 85 94 87 85 82 75 74 71 61 59 44 37 36 25 23 11 13 4 7 1 355 340 310 317 325 327 323 323 322 317 313 314 310
131 136 133 126 123 118 116 112 105 96 94 88 86 84 74 74 69 62 64 38 27 26 29 30 40 22 16 21 32 19 32 16 346 329 314 316 316 311 310 311 305 304 311
135 144 138 127 126 122 115 111 111 106 97 87 89 78 69 60 60 44 31 32 23 24 22 21 18 12 16 30 29 25 29 29 21 353 344 328 317 316 316 322 317 310 309
141 148 138 130 127 123 116 114 112 104 105 93 86 77 64 53 39 30 19 27 22 23 20 20 11 10 15 14 11 12 17 22 12 350 328 320 317 320 319 321 318 319 316
143 145 139 131 129 123 118 117 112 111 104 95 81 70 63 47 30 18 16 24 23 28 34 38 22 13 359 4 14 1 358 355 354 353 344 339 329 327 321 320 313 319 319
143 144 138 135 130 125 124 124 123 116 110 85 78 66 45 39 24 14 14 25 32 49 50 41 19 11 13 9 3 351 336 342 348 347 344 337 328 323 323 327 324 319 316
153 152 147 140 135 132 133 135 131 125 119 100 79 62 43 32 27 18 17 34 47 67 45 33 17 15 11 18 2 354 337 347 344 345 347 346 337 327 325 323 321 323 314
168 164 158 151 144 138 140 139 133 122 112 102 58 43 32 32 32 24 27 49 63 54 38 24 16 21 18 10 9 5 353 348 339 338 343 344 339 327 318 316 313 313 311
179 178 172 162 159 157 157 153 138 126 101 73 28 20 27 36 38 28 33 65 63 47 32 16 4 3 10 11 8 4 360 352 355 334 335 342 331 325 318 316 314 315 316
182 186 179 170 174 177 183 173 153 164 120 38 4 18 25 36 50 34 39 50 43 37 19 5 359 358 345 342 356 356 354 347 344 344 333 334 332 327 322 321 319 317 314
183 184 184 176 176 183 200 178 163 170 35 44 16 15 13 33 47 37 42 39 35 17 8 357 2 1 4 354 344 348 346 350 347 347 342 335 331 325 321 321 317 317 314
196 191 194 199 190 195 211 190 168 143 41 68 21 1 7 37 43 60 35 24 20 10 3 343 339 355 345 334 320 333 338 342 340 335 337 329 330 324 321 319 322 320 318
Height
5902 5904 5906 5903 5904 5903 5903 5905 5907 5907 5907 5907 5906 5906 5906 5905 5905 5905 5906 5907 5907 5907 5907 5908 5909 5908 5908 5907 5906 5905 5903 5904 5905 5906 5905 5904 5903 5903 5901 5901 5901 5901 5903
5904 5908 5908 5905 5906 5904 5906 5906 5908 5909 5908 5908 5907 5907 5907 5907 5907 5907 5908 5908 5908 5909 5909 5910 5909 5909 5909 5909 5908 5906 5904 5904 5905 5904 5903 5901 5902 5903 5903 5901 5902 5904 5905
5904 5907 5907 5907 5908 5907 5907 5908 5909 5910 5910 5909 5908 5908 5909 5909 5909 5910 5910 5910 5910 5910 5911 5911 5910 5911 5910 5910 5908 5907 5909 5910 5906 5910 5900 5901 5900 5900 5905 5906 5905 5906 5906
5904 5907 5908 5909 5908 5909 5911 5910 5911 5912 5911 5910 5910 5910 5910 5911 5912 5912 5911 5911 5910 5911 5911 5911 5911 5911 5910 5910 5907 5909 5912 5912 5911 5908 5903 5896 5899 5905 5905 5906 5906 5905 5907
5906 5907 5910 5910 5908 5911 5912 5912 5913 5913 5912 5912 5911 5912 5912 5913 5912 5912 5913 5913 5913 5913 5912 5911 5911 5911 5911 5909 5909 5910 5914 5914 5911 5912 5909 5902 5906 5907 5905 5903 5904 5903 5905
5908 5909 5910 5910 5911 5913 5914 5914 5915 5914 5913 5913 5913 5913 5913 5913 5914 5914 5914 5914 5913 5913 5913 5913 5913 5912 5910 5909 5911 5912 5913 5914 5915 5911 5910 5907 5906 5908 5905 5901 5901 5903 5902
5910 5911 5911 5912 5913 5915 5915 5916 5917 5915 5915 5915 5914 5914 5914 5915 5915 5915 5915 5914 5913 5912 5912 5913 5913 5913 5912 5911 5912 5912 5915 5914 5913 5913 5911 5910 5906 5903 5900 5900 5901 5905 5903
5912 5912 5913 5913 5915 5916 5917 5917 5918 5917 5917 5916 5916 5917 5918 5918 5917 5916 5916 5915 5915 5915 5914 5914 5913 5913 5913 5912 5913 5911 5910 5913 5912 5911 5910 5907 5904 5903 5903 5902 5902 5905 5902
5912 5912 5914 5915 5915 5917 5918 5919 5919 5919 5919 5918 5919 5919 5920 5919 5919 5917 5917 5918 5917 5916 5916 5917 5916 5915 5914 5913 5912 5913 5909 5910 5910 5910 5909 5907 5905 5905 5907 5903 5903 5904 5901
5912 5913 5914 5916 5916 5918 5920 5921 5921 5921 5923 5924 5923 5924 5923 5923 5924 5924 5921 5920 5921 5919 5918 5918 5918 5918 5916 5915 5913 5910 5910 5909 5907 5906 5906 5906 5903 5904 5903 5902 5902 5901 5899
5913 5915 5915 5916 5918 5920 5922 5924 5924 5925 5924 5925 5925 5925 5924 5925 5926 5924 5922 5921 5922 5923 5921 5919 5918 5918 5915 5913 5911 5908 5906 5906 5905 5904 5902 5901 5903 5902 5901 5898 5898 5896 5896
5914 5915 5916 5918 5920 5922 5924 5926 5927 5926 5925 5925 5928 5928 5929 5928 5926 5926 5925 5921 5921 5922 5922 5920 5917 5916 5915 5914 5911 5908 5905 5905 5904 5903 5903 5903 5901 5900 5895 5896 5895 5896 5895
5916 5916 5918 5920 5921 5924 5926 5928 5929 5928 5928 5932 5931 5931 5932 5926 5928 5928 5923 5928 5927 5926 5922 5923 5921 5920 5918 5917 5913 5910 5904 5903 5903 5900 5900 5899 5897 5895 5895 5894 5895 5893 5890
5917 5917 5920 5921 5924 5927 5928 5930 5930 5932 5933 5932 5932 5930 5931 5931 5929 5929 5928 5931 5931 5929 5924 5925 5924 5922 5919 5916 5913 5907 5904 5902 5902 5901 5899 5899 5896 5895 5894 5893 5891 5888 5886
5917 5919 5922 5924 5927 5928 5931 5933 5932 5932 5936 5937 5934 5935 5933 5932 5932 5930 5930 5932 5932 5929 5927 5927 5924 5922 5921 5917 5913 5907 5901 5901 5897 5903 5901 5898 5896 5894 5892 5891 5888 5885 5883
5919 5922 5924 5926 5929 5931 5934 5935 5937 5937 5937 5936 5937 5936 5935 5935 5934 5935 5935 5935 5933 5932 5929 5927 5926 5923 5920 5915 5910 5908 5903 5900 5898 5901 5902 5900 5897 5894 5890 5886 5884 5882 5879
5921 5924 5926 5928 5931 5933 5936 5938 5941 5940 5938 5939 5939 5939 5938 5938 5938 5938 5938 5938 5936 5932 5929 5928 5926 5924 5920 5915 5912 5909 5905 5902 5900 5898 5897 5896 5893 5892 5889 5886 5883 5879 5875
5923 5926 5928 5930 5933 5936 5938 5940 5942 5941 5942 5943 5943 5941 5940 5940 5940 5940 5939 5937 5936 5934 5932 5932 5929 5927 5922 5917 5912 5910 5905 5903 5901 5898 5895 5895 5891 5889 5885 5881 5878 5875 5871
5925 5928 5929 5931 5934 5937 5940 5942 5943 5944 5945 5946 5945 5945 5944 5944 5942 5941 5940 5939 5938 5936 5935 5932 5928 5926 5920 5916 5913 5909 5905 5902 5899 5896 5892 5889 5887 5886 5883 5880 5874 5871 5867
5926 5929 5931 5932 5935 5938 5941 5944 5945 5945 5947 5948 5947 5947 5946 5945 5944 5943 5941 5940 5939 5936 5935 5932 5928 5924 5920 5917 5913 5909 5905 5902 5899 5896 5893 5889 5884 5881 5878 5874 5870 5866 5861
5926 5929 5931 5933 5936 5939 5942 5945 5946 5947 5948 5949 5949 5947 5947 5946 5945 5944 5942 5940 5939 5937 5935 5931 5926 5923 5919 5915 5912 5905 5904 5901 5898 5893 5889 5886 5881 5877 5873 5869 5864 5860 5855
5926 5929 5932 5935 5937 5939 5942 5945 5946 5948 5948 5949 5949 5948 5948 5947 5946 5944 5943 5941 5939 5937 5935 5931 5928 5924 5920 5915 5910 5908 5905 5901 5897 5891 5887 5884 5879 5874 5869 5866 5861 5858 5851
5927 5930 5933 5935 5938 5940 5942 5945 5947 5948 5949 5949 5949 5948 5948 5948 5946 5944 5942 5941 5939 5937 5935 5931 5927 5922 5918 5914 5911 5907 5904 5901 5898 5893 5886 5882 5878 5873 5867 5862 5855 5850 5843
5928 5931 5933 5936 5938 5940 5942 5944 5946 5948 5949 5949 5948 5947 5948 5947 5946 5944 5942 5941 5940 5937 5935 5932 5928 5924 5921 5915 5912 5908 5904 5900 5897 5894 5887 5878 5871 5866 5861 5855 5850 5843 5834
5928 5930 5933 5936 5938 5940 5941 5944 5946 5947 5948 5949 5949 5948 5947 5946 5945 5944 5943 5941 5940 5938 5935 5932 5928 5924 5921 5917 5910 5905 5900 5897 5892 5887 5884 5878 5869 5861 5855 5848 5841 5833 5824
5928 5931 5933 5935 5937 5939 5941 5943 5945 5947 5948 5949 5949 5947 5947 5946 5945 5944 5943 5941 5940 5938 5935 5931 5927 5924 5919 5912 5908 5905 5898 5892 5888 5883 5878 5873 5863 5856 5849 5841 5834 5824 5813